GW3170 Weather Reports


Display with metric or nautical units.
time (UTC)temp
F
wind
direction
speed
MPH
gust
MPH
rain 1hr
in
rain 24hr
in
rain mn
in
humidity
%
barometer
mb
20260507123554 43 318 2.0 7.0 0.00 0.12 0.00 66 1012.5
20260507123103 43 325 3.0 7.0 0.00 0.12 0.00 70 1012.6
20260507122553 43 302 3.0 6.0 0.00 0.12 0.00 74 1012.7
20260507122057 42 296 3.0 6.0 0.00 0.12 0.00 75 1012.8
20260507121557 42 302 2.0 6.0 0.00 0.12 0.00 77 1012.5
20260507121055 42 281 2.0 5.0 0.00 0.12 0.00 78 1012.5
20260507120555 41 274 3.0 5.0 0.00 0.12 0.00 78 1012.5
20260507120055 41 304 2.0 3.0 0.00 0.12 0.00 82 1012.5
20260507115557 40 288 0.0 2.0 0.00 0.18 0.00 83 1012.4
20260507115057 40 286 0.0 2.0 0.00 0.18 0.00 84 1012.4
20260507114555 40 310 0.0 2.0 0.00 0.18 0.00 84 1012.3
20260507114056 40 0 0.0 3.0 0.00 0.18 0.00 85 1012.4
20260507113559 40 0 1.0 3.0 0.00 0.18 0.00 85 1012.4
20260507113128 40 251 1.0 3.0 0.00 0.18 0.00 86 1012.3
20260507112554 39 297 2.0 4.0 0.00 0.18 0.00 87 1012.3
20260507112059 39 269 2.0 4.0 0.00 0.18 0.00 88 1012.4
20260507111555 38 282 2.0 4.0 0.00 0.18 0.00 89 1012.5
20260507111056 38 273 1.0 2.0 0.00 0.18 0.00 90 1012.4
20260507110556 37 283 0.0 2.0 0.00 0.18 0.00 91 1012.3
20260507110054 36 0 0.0 2.0 0.00 0.18 0.00 91 1012.3
20260507105557 36 0 0.0 0.0 0.00 0.30 0.00 90 1012.2
20260507105055 35 0 0.0 0.0 0.00 0.30 0.00 89 1012.3
20260507104616 35 0 0.0 0.0 0.00 0.30 0.00 89 1012.2
20260507104057 34 0 0.0 0.0 0.00 0.30 0.00 89 1012.0
20260507103557 34 0 0.0 0.0 0.00 0.30 0.00 88 1012.0
20260507103059 33 0 0.0 0.0 0.00 0.30 0.00 87 1012.0
20260507102556 33 0 0.0 0.0 0.00 0.30 0.00 86 1011.9
20260507102057 33 0 0.0 0.0 0.00 0.30 0.00 86 1011.8
20260507101556 34 0 0.0 0.0 0.00 0.30 0.00 85 1011.9
20260507101057 34 0 0.0 0.0 0.00 0.30 0.00 85 1011.7
20260507100556 34 0 0.0 0.0 0.00 0.30 0.00 85 1011.7
20260507100101 34 0 0.0 0.0 0.00 0.30 0.00 84 1011.8
20260507095557 35 0 0.0 0.0 0.00 0.34 0.00 84 1011.9
20260507095056 35 0 0.0 0.0 0.00 0.34 0.00 84 1011.9
20260507094611 35 0 0.0 0.0 0.00 0.34 0.00 85 1011.9
20260507094057 35 0 0.0 0.0 0.00 0.34 0.00 86 1011.9
20260507093557 35 0 0.0 0.0 0.00 0.34 0.00 86 1012.1
20260507093056 35 0 0.0 0.0 0.00 0.34 0.00 84 1012.1
20260507092557 35 0 0.0 0.0 0.00 0.34 0.00 83 1012.0
20260507092058 35 0 0.0 0.0 0.00 0.34 0.00 83 1012.1
20260507091600 36 0 0.0 0.0 0.00 0.34 0.00 82 1012.0
20260507091059 36 0 0.0 0.0 0.00 0.34 0.00 82 1012.0
20260507090601 36 0 0.0 0.0 0.00 0.34 0.00 80 1011.8
20260507090100 37 0 0.0 0.0 0.00 0.34 0.00 79 1011.7
20260507085554 37 0 0.0 0.0 0.00 0.40 0.00 79 1011.9
20260507085055 37 0 0.0 0.0 0.00 0.40 0.00 78 1012.0
20260507084602 38 0 0.0 0.0 0.00 0.40 0.00 77 1012.0
20260507084054 38 0 0.0 0.0 0.00 0.40 0.00 76 1011.9
20260507083557 38 0 0.0 0.0 0.00 0.40 0.00 75 1012.0
20260507083100 39 0 0.0 2.0 0.00 0.40 0.00 74 1012.0
20260507082557 39 0 0.0 2.0 0.00 0.40 0.00 72 1012.0
20260507082056 39 0 0.0 3.0 0.00 0.40 0.00 72 1012.2
20260507081554 39 298 1.0 6.0 0.00 0.40 0.00 72 1012.2
20260507081100 40 296 2.0 6.0 0.00 0.40 0.00 72 1012.2
20260507080553 40 297 1.0 3.0 0.00 0.40 0.00 72 1012.3
20260507075557 40 311 2.0 5.0 0.00 0.48 0.00 72 1012.2
20260507075054 40 300 2.0 5.0 0.00 0.48 0.00 73 1012.2
20260507074600 40 306 0.0 4.0 0.00 0.48 0.00 73 1012.1
20260507074053 40 343 1.0 4.0 0.00 0.48 0.00 74 1012.0
20260507073554 40 297 1.0 4.0 0.00 0.48 0.00 74 1012.0
20260507073058 41 329 0.0 4.0 0.00 0.48 0.00 74 1012.0
20260507072555 41 292 1.0 4.0 0.00 0.48 0.00 74 1012.1
20260507072058 41 293 2.0 4.0 0.00 0.48 0.00 75 1012.1
20260507071556 41 355 0.0 1.0 0.00 0.48 0.00 75 1012.0
20260507071054 41 290 0.0 3.0 0.00 0.48 0.00 75 1011.9
20260507070555 41 284 1.0 3.0 0.00 0.48 0.00 75 1011.8
20260507070106 41 295 0.0 2.0 0.00 0.48 0.00 75 1011.9
20260507065554 41 0 0.0 4.0 0.00 0.52 0.00 76 1011.8
20260507065056 41 289 1.0 4.0 0.00 0.52 0.00 75 1011.7
20260507064602 42 280 2.0 4.0 0.00 0.52 0.00 74 1011.7
20260507064055 42 309 1.0 2.0 0.00 0.52 0.00 74 1011.7
20260507063554 42 284 1.0 2.0 0.00 0.52 0.00 74 1011.8
20260507063057 42 292 0.0 2.0 0.00 0.52 0.00 75 1011.9
20260507062557 42 297 1.0 2.0 0.00 0.52 0.00 75 1011.9
20260507062057 42 0 0.0 2.0 0.00 0.52 0.00 75 1011.9
20260507061557 42 295 0.0 2.0 0.00 0.52 0.00 75 1012.0
20260507061057 42 305 0.0 3.0 0.00 0.52 0.00 74 1012.0
20260507060553 42 0 1.0 3.0 0.00 0.52 0.00 75 1012.0
20260507060058 42 0 0.0 3.0 0.00 0.52 0.00 74 1012.0
20260507055555 42 284 0.0 3.0 0.00 0.55 0.00 75 1012.0
20260507055055 42 282 1.0 3.0 0.00 0.55 0.00 75 1012.0
20260507054555 42 268 0.0 2.0 0.00 0.55 0.00 74 1012.0
20260507054059 42 282 0.0 5.0 0.00 0.55 0.00 75 1012.1
20260507053554 42 300 1.0 5.0 0.00 0.55 0.00 76 1012.2
20260507053057 42 297 1.0 6.0 0.00 0.55 0.00 76 1012.2
20260507052554 42 298 1.0 6.0 0.00 0.55 0.00 77 1012.1
20260507052054 42 293 1.0 6.0 0.00 0.55 0.00 80 1012.2
20260507051601 42 305 2.0 6.0 0.00 0.55 0.00 80 1012.2
20260507051053 42 321 2.0 7.0 0.00 0.55 0.00 84 1012.2
20260507050553 42 310 3.0 8.0 0.00 0.55 0.00 85 1012.1
20260507050109 42 313 2.0 8.0 0.00 0.55 0.00 86 1012.0
20260507045554 42 298 4.0 8.0 0.00 0.58 0.00 87 1012.1
20260507045056 42 300 3.0 7.0 0.00 0.58 0.00 88 1012.0
20260507044559 42 288 2.0 7.0 0.00 0.58 0.00 88 1012.1
20260507044059 42 302 2.0 7.0 0.00 0.58 0.00 89 1012.1
20260507043554 42 321 3.0 6.0 0.00 0.58 0.00 89 1012.0
20260507043110 42 308 0.0 6.0 0.00 0.58 0.00 89 1012.0
20260507042555 42 274 2.0 5.0 0.00 0.58 0.00 89 1011.9
20260507042054 42 295 1.0 6.0 0.00 0.58 0.00 89 1011.9
20260507041558 42 314 3.0 6.0 0.00 0.58 0.00 88 1012.0
20260507041054 43 297 2.0 6.0 0.00 0.58 0.00 89 1011.9
20260507040556 43 299 1.0 5.0 0.00 0.58 0.00 88 1011.7
20260507040112 43 293 2.0 5.0 0.00 0.58 0.00 89 1011.8
20260507035558 43 0 2.0 5.0 0.00 0.67 0.58 89 1011.8
20260507035054 43 299 1.0 3.0 0.00 0.67 0.58 88 1011.8
20260507034604 43 304 1.0 4.0 0.00 0.67 0.58 88 1011.7
20260507034055 43 294 1.0 4.0 0.00 0.67 0.58 88 1011.6
20260507033555 43 291 3.0 4.0 0.00 0.67 0.58 88 1011.7
20260507033107 43 290 2.0 6.0 0.00 0.67 0.58 88 1011.7
20260507032555 43 288 0.0 6.0 0.00 0.67 0.58 88 1011.7
20260507032054 43 0 2.0 6.0 0.00 0.67 0.58 87 1011.6
20260507031559 43 300 1.0 4.0 0.00 0.67 0.58 88 1011.7
20260507031055 43 339 1.0 5.0 0.00 0.67 0.58 88 1011.8
20260507030555 43 320 1.0 5.0 0.00 0.67 0.58 88 1011.8
20260507025558 44 300 1.0 3.0 0.00 0.77 0.58 88 1011.5
20260507025054 44 305 0.0 4.0 0.00 0.77 0.58 89 1011.5
20260507024608 44 328 1.0 4.0 0.00 0.77 0.58 89 1011.6
20260507024104 44 327 1.0 3.0 0.00 0.77 0.58 89 1011.5
20260507023557 44 317 0.0 2.0 0.00 0.77 0.58 89 1011.5
20260507023109 44 0 1.0 2.0 0.00 0.77 0.58 89 1011.5
20260507022554 44 329 0.0 2.0 0.00 0.77 0.58 90 1011.7
20260507022054 44 307 0.0 3.0 0.00 0.77 0.58 90 1011.8
20260507021611 45 307 0.0 3.0 0.00 0.77 0.58 90 1011.8
20260507021054 45 0 0.0 0.0 0.00 0.77 0.58 89 1011.6
20260507020557 45 0 0.0 0.0 0.00 0.77 0.58 89 1011.6
20260507015557 45 0 0.0 1.0 0.00 0.92 0.58 89 1011.5
20260507015055 45 0 0.0 1.0 0.00 0.92 0.58 89 1011.7
20260507014600 45 277 0.0 1.0 0.00 0.92 0.58 89 1011.8
20260507014055 45 0 0.0 0.0 0.00 0.92 0.58 89 1011.7
20260507013554 45 0 0.0 0.0 0.00 0.92 0.58 89 1011.6
20260507013057 45 0 0.0 0.0 0.00 0.92 0.58 89 1011.5
20260507012559 45 0 0.0 0.0 0.00 0.92 0.58 90 1011.7
20260507012054 45 0 0.0 0.0 0.00 0.92 0.58 90 1011.6
20260507011559 44 0 0.0 0.0 0.00 0.92 0.58 89 1011.4
20260507011054 44 0 0.0 0.0 0.00 0.92 0.58 89 1011.3
20260507010554 44 0 0.0 0.0 0.00 0.92 0.58 89 1011.2
20260507010053 45 0 0.0 0.0 0.00 0.92 0.58 88 1011.2
20260507005554 45 0 0.0 0.0 0.00 1.02 0.58 88 1011.1
20260507005054 45 0 0.0 0.0 0.00 1.02 0.58 88 1010.8
20260507004554 45 0 0.0 0.0 0.00 1.02 0.58 88 1011.1
20260507004054 45 0 0.0 0.0 0.00 1.02 0.58 87 1011.1
20260507003555 45 0 0.0 0.0 0.00 1.02 0.58 87 1010.9
20260507003055 45 0 0.0 0.0 0.00 1.02 0.58 87 1010.8
20260507002555 45 0 0.0 0.0 0.00 1.02 0.58 87 1010.9
20260507002057 45 0 0.0 0.0 0.00 1.02 0.58 86 1010.8
20260507001603 45 0 0.0 0.0 0.00 1.02 0.58 86 1010.8
20260507001056 45 0 0.0 0.0 0.00 1.02 0.58 86 1010.9
20260507000557 45 0 0.0 1.0 0.00 1.02 0.58 86 1010.8
20260507000058 45 0 0.0 1.0 0.00 1.02 0.58 86 1010.7
20260506235557 45 272 0.0 2.0 0.00 1.03 0.58 86 1010.7
20260506235054 45 0 0.0 2.0 0.00 1.03 0.58 86 1010.6
20260506234624 45 257 0.0 2.0 0.00 1.03 0.58 85 1010.6
20260506234054 45 281 0.0 2.0 0.00 1.03 0.58 85 1010.6
20260506233554 45 0 0.0 2.0 0.00 1.03 0.58 85 1010.4
20260506233055 45 0 1.0 3.0 0.00 1.03 0.58 85 1010.3
20260506232559 45 288 0.0 4.0 0.00 1.03 0.58 85 1010.4
20260506232056 45 305 2.0 4.0 0.00 1.03 0.58 84 1010.4
20260506231556 45 280 0.0 2.0 0.00 1.03 0.58 85 1010.1
20260506231059 45 0 0.0 4.0 0.00 1.03 0.58 85 1009.9
20260506230600 45 281 1.0 4.0 0.00 1.03 0.58 85 1010.1
20260506230059 45 289 2.0 4.0 0.00 1.03 0.58 85 1010.2
20260506225600 45 290 0.0 2.0 0.00 1.03 0.58 85 1010.1
20260506225055 45 0 0.0 0.0 0.00 1.03 0.58 85 1009.7
20260506224556 45 0 0.0 0.0 0.00 1.03 0.58 84 1009.8
20260506224054 45 0 0.0 0.0 0.00 1.03 0.58 84 1009.8
20260506223600 45 0 0.0 2.0 0.00 1.03 0.58 85 1009.9
20260506223101 45 0 0.0 2.0 0.00 1.03 0.58 84 1009.9
20260506222557 45 294 0.0 2.0 0.00 1.03 0.58 84 1010.1
20260506222057 45 0 0.0 1.0 0.00 1.03 0.58 84 1010.2
20260506221556 45 0 0.0 2.0 0.00 1.03 0.58 83 1010.2
20260506221056 45 0 0.0 2.0 0.00 1.03 0.58 83 1010.2
20260506220556 45 304 0.0 2.0 0.00 1.03 0.58 83 1010.2
20260506220055 46 0 0.0 4.0 0.00 1.03 0.58 84 1010.0
20260506215557 46 299 1.0 5.0 0.00 1.03 0.58 84 1010.1
20260506215101 46 294 1.0 5.0 0.00 1.03 0.58 83 1010.1
20260506214557 46 289 2.0 5.0 0.00 1.03 0.58 83 1010.1
20260506214057 46 293 1.0 5.0 0.00 1.03 0.58 84 1010.1
20260506213557 46 0 1.0 5.0 0.00 1.03 0.58 85 1010.0
20260506213058 46 307 1.0 3.0 0.00 1.03 0.58 84 1010.0
20260506212557 46 349 1.0 6.0 0.00 1.03 0.58 84 1009.9
20260506212055 46 296 0.0 6.0 0.00 1.03 0.58 85 1009.8
20260506211554 46 299 1.0 6.0 0.00 1.03 0.58 84 1009.8
20260506211057 46 329 2.0 6.0 0.00 1.03 0.58 86 1009.8
20260506210554 46 276 4.0 6.0 0.00 1.03 0.58 85 1009.8
20260506210057 46 285 1.0 5.0 0.00 1.03 0.58 86 1009.9
20260506205559 46 304 1.0 7.0 0.00 1.03 0.58 86 1009.9
20260506205056 46 311 2.0 7.0 0.00 1.03 0.58 86 1009.9
20260506204600 46 323 1.0 4.0 0.00 1.03 0.58 87 1009.7
20260506204056 46 0 1.0 4.0 0.00 1.03 0.58 87 1009.6
20260506203556 46 276 1.0 3.0 0.00 1.03 0.58 88 1009.6
20260506203056 46 318 0.0 3.0 0.00 1.03 0.58 88 1009.4
20260506202600 46 347 1.0 3.0 0.00 1.03 0.58 88 1009.5
20260506202059 46 307 2.0 4.0 0.00 1.03 0.58 87 1009.3
20260506201558 46 8 0.0 4.0 0.00 1.03 0.58 89 1009.3
20260506201057 46 344 1.0 2.0 0.00 1.03 0.58 89 1009.2
20260506200601 45 331 0.0 2.0 0.00 1.03 0.58 90 1009.3
20260506200109 45 349 1.0 6.0 0.00 1.03 0.58 90 1009.3
20260506195600 45 0 2.0 6.0 0.00 1.03 0.58 89 1009.3
20260506195057 45 318 0.0 4.0 0.01 1.03 0.58 91 1009.4
20260506194623 45 0 2.0 4.0 0.01 1.03 0.58 90 1009.4
20260506194056 45 340 1.0 4.0 0.01 1.03 0.58 91 1009.5
20260506193600 45 335 1.0 4.0 0.01 1.03 0.58 91 1009.5
20260506193055 45 349 2.0 5.0 0.01 1.03 0.58 91 1009.5
20260506192557 45 295 2.0 5.0 0.01 1.03 0.58 91 1009.5
20260506192057 45 347 1.0 5.0 0.01 1.03 0.58 92 1009.5
20260506191556 45 333 2.0 4.0 0.01 1.03 0.58 92 1009.4
20260506191057 45 7 0.0 3.0 0.01 1.03 0.58 92 1009.3
20260506190555 45 326 1.0 4.0 0.01 1.03 0.58 92 1009.2
20260506190055 45 283 2.0 4.0 0.01 1.03 0.58 92 1009.1
20260506185557 45 329 2.0 4.0 0.01 1.03 0.58 91 1009.1
20260506185100 45 335 0.0 7.0 0.00 1.02 0.58 92 1009.0
20260506184604 45 331 1.0 7.0 0.00 1.02 0.58 92 1009.1
20260506184057 45 335 1.0 5.0 0.00 1.02 0.58 92 1009.2
20260506183601 45 321 1.0 3.0 0.00 1.02 0.58 92 1009.1
20260506183105 45 345 1.0 3.0 0.00 1.02 0.58 92 1009.2
20260506182556 45 344 0.0 2.0 0.00 1.02 0.58 92 1009.2
20260506182056 45 0 0.0 2.0 0.00 1.02 0.58 93 1009.0
20260506181601 45 0 0.0 4.0 0.00 1.02 0.58 93 1008.9
20260506181055 45 352 0.0 4.0 0.00 1.02 0.58 93 1008.9
20260506180557 45 340 0.0 4.0 0.00 1.02 0.58 93 1008.8
20260506180057 45 0 0.0 4.0 0.00 1.02 0.58 92 1008.5
20260506175557 45 330 0.0 4.0 0.00 1.03 0.58 93 1008.6
20260506175056 45 350 1.0 4.0 0.00 1.03 0.58 93 1008.5
20260506174602 45 322 1.0 4.0 0.00 1.03 0.58 93 1008.3
20260506174058 45 318 0.0 2.0 0.00 1.03 0.58 93 1008.2
20260506173558 45 352 0.0 3.0 0.00 1.03 0.58 93 1008.2
20260506173112 45 354 1.0 4.0 0.00 1.03 0.58 93 1008.3
20260506172600 45 0 1.0 4.0 0.00 1.03 0.58 93 1008.4
20260506172056 45 335 1.0 4.0 0.00 1.03 0.58 93 1008.5
20260506171600 45 1 0.0 4.0 0.00 1.03 0.58 93 1008.4
20260506171057 45 350 1.0 4.0 0.00 1.03 0.58 93 1008.3
20260506170600 45 349 1.0 4.0 0.00 1.03 0.58 93 1008.3
20260506170101 45 0 1.0 4.0 0.00 1.03 0.58 93 1008.2
20260506165557 45 326 0.0 4.0 0.00 1.03 0.58 93 1008.1
20260506165057 45 0 2.0 4.0 0.00 1.03 0.58 93 1008.1
20260506164558 45 0 1.0 3.0 0.00 1.03 0.58 93 1008.0
20260506164056 45 341 1.0 3.0 0.00 1.03 0.58 93 1008.0
20260506163556 45 0 0.0 3.0 0.00 1.03 0.58 93 1008.0
20260506163059 45 342 1.0 4.0 0.00 1.03 0.58 93 1008.1
20260506162554 45 345 0.0 4.0 0.00 1.03 0.58 93 1008.1
20260506162101 45 326 1.0 2.0 0.00 1.03 0.58 93 1008.1
20260506161605 45 0 0.0 2.0 0.00 1.03 0.58 94 1008.2
20260506161057 45 339 0.0 2.0 0.00 1.03 0.58 94 1008.2
20260506160557 45 0 0.0 3.0 0.00 1.03 0.58 94 1008.2
20260506160058 45 0 0.0 3.0 0.00 1.03 0.58 94 1008.3
20260506155558 45 352 0.0 2.0 0.00 1.03 0.58 93 1008.4
20260506155147 45 0 0.0 1.0 0.00 1.03 0.58 93 1008.4
20260506154557 45 339 0.0 2.0 0.00 1.03 0.58 94 1008.4
20260506154057 44 0 0.0 3.0 0.00 1.03 0.58 93 1008.4
20260506153557 44 0 0.0 3.0 0.00 1.03 0.58 93 1008.6
20260506153058 45 359 0.0 2.0 0.00 1.03 0.58 94 1008.6
20260506152557 44 0 0.0 1.0 0.00 1.03 0.58 94 1008.5
20260506152054 44 339 0.0 1.0 0.00 1.03 0.58 93 1008.5
20260506151605 44 340 0.0 1.0 0.00 1.03 0.58 93 1008.5
20260506151054 44 0 0.0 1.0 0.00 1.03 0.58 93 1008.5
20260506150554 44 0 0.0 0.0 0.00 1.03 0.58 93 1008.3
20260506150106 45 0 0.0 0.0 0.00 1.03 0.58 93 1008.3
20260506145555 45 0 0.0 0.0 0.00 1.03 0.58 94 1008.0
20260506145054 44 0 0.0 0.0 0.00 1.03 0.58 93 1008.0
20260506144602 45 0 0.0 0.0 0.00 1.03 0.58 93 1008.1
20260506144056 45 0 0.0 0.0 0.00 1.03 0.58 94 1008.0
20260506143557 45 0 0.0 0.0 0.00 1.03 0.58 94 1007.9
20260506143103 44 0 0.0 1.0 0.00 1.03 0.58 94 1007.8
20260506142553 45 0 0.0 1.0 0.01 1.03 0.58 94 1007.9
20260506142056 44 0 0.0 1.0 0.02 1.03 0.58 94 1007.9
20260506141559 45 330 0.0 0.0 0.02 1.03 0.58 94 1007.9
20260506141057 44 0 0.0 2.0 0.03 1.03 0.58 94 1007.9
20260506140555 44 0 0.0 2.0 0.03 1.03 0.58 94 1008.0
20260506140111 44 0 0.0 0.0 0.03 1.03 0.58 94 1007.9
20260506135554 44 0 0.0 0.0 0.04 1.03 0.58 94 1008.0
20260506135056 44 0 0.0 0.0 0.04 1.03 0.58 94 1008.0
20260506134555 44 0 0.0 0.0 0.05 1.03 0.58 94 1008.1
20260506134056 44 0 0.0 0.0 0.06 1.03 0.58 94 1008.1
20260506133557 43 0 0.0 0.0 0.07 1.03 0.58 94 1008.1
20260506133103 43 0 0.0 0.0 0.08 1.03 0.58 94 1008.2
20260506132554 43 0 0.0 0.0 0.07 1.02 0.57 94 1008.2
20260506132056 43 0 0.0 0.0 0.07 1.01 0.56 94 1008.2
20260506131601 43 0 0.0 0.0 0.08 1.01 0.56 94 1008.3
20260506131056 43 0 0.0 0.0 0.07 1.00 0.55 94 1008.5
20260506130557 43 0 0.0 0.0 0.08 1.00 0.55 94 1008.3
20260506130126 43 0 0.0 0.0 0.08 1.00 0.55 94 1008.2
20260506125602 43 0 0.0 0.0 0.07 0.99 0.54 94 1008.4
20260506125057 43 0 0.0 0.0 0.07 0.99 0.54 94 1008.3
20260506124556 43 0 0.0 0.0 0.07 0.98 0.52 94 1008.5
20260506124132 43 0 0.0 0.0 0.06 0.97 0.52 94 1008.3